GW0203 Weather Reports


time (UTC)temp
F
wind
direction
speed
knots
gust
knots
rain 1hr
in
rain 24hr
in
rain mn
in
humidity
%
barometer
mb
20260901215456 60 135 1.7 3.5 0.02 0.97 0.97 99 1017.2
20260901213955 60 132 0.0 2.6 0.02 0.97 0.97 99 1017.2
20260901212450 60 119 3.5 5.2 0.02 0.96 0.96 99 1017.2
20260901210950 59 90 0.0 7.0 0.02 0.96 0.96 99 1017.1
20260901205448 59 143 0.0 4.3 0.05 0.95 0.95 99 1017.0
20260901203944 59 140 2.6 6.1 0.09 0.94 0.94 99 1016.6
20260901202441 59 106 4.3 7.8 0.05 0.91 0.91 99 1016.6
20260901200937 61 112 2.6 3.5 0.09 0.90 0.90 99 1016.9
20260901195436 61 113 4.3 7.0 0.09 0.87 0.87 99 1016.7
20260901193934 61 352 0.0 4.3 0.05 0.85 0.85 99 1016.6
20260901192429 61 105 0.9 3.5 0.02 0.84 0.84 99 1016.3
20260901190928 61 115 2.6 6.1 0.00 0.84 0.84 99 1016.2
20260901185425 61 70 1.7 5.2 0.00 0.84 0.84 99 1016.0
20260901183922 61 90 2.6 8.7 0.00 0.84 0.84 99 1016.2
20260901182418 62 174 0.0 4.3 0.05 0.84 0.84 99 1016.1
20260901180918 61 270 0.0 4.3 0.26 0.82 0.82 99 1016.2
20260901175417 61 130 2.6 3.5 0.21 0.74 0.74 99 1016.4
20260901173915 61 81 0.0 4.3 0.09 0.66 0.66 99 1016.6
20260901172413 61 96 1.7 6.1 0.00 0.65 0.65 99 1015.9
20260901170908 61 104 2.6 3.5 0.00 0.65 0.65 99 1016.1
20260901165403 61 265 0.0 2.6 0.00 0.65 0.65 99 1016.2
20260901163900 62 157 1.7 3.5 0.07 0.64 0.64 99 1016.3
20260901162355 62 140 0.0 6.1 0.14 0.62 0.62 99 1016.4
20260901160850 62 150 0.0 3.5 0.12 0.57 0.57 99 1016.3
20260901155346 62 159 0.0 4.3 0.31 0.53 0.53 99 1016.6
20260901153842 62 180 0.0 4.3 0.21 0.45 0.45 99 1016.6
20260901152342 64 135 1.7 2.6 0.24 0.39 0.39 99 1016.8
20260901150837 65 165 0.0 3.5 0.17 0.33 0.33 99 1016.5
20260901145332 64 131 0.0 3.5 0.24 0.29 0.29 98 1016.6
20260901143830 65 148 1.7 2.6 0.12 0.23 0.23 98 1016.5
20260901142327 66 192 0.0 4.3 0.21 0.19 0.19 98 1016.7
20260901140822 68 90 0.0 1.7 0.19 0.11 0.11 98 1017.3
20260901135322 68 0 0.9 0.9 0.05 0.07 0.07 98 1016.4
20260901133818 69 71 0.9 2.6 0.02 0.06 0.06 97 1016.1
20260901132317 69 151 0.0 1.7 0.05 0.05 0.05 97 1016.2
20260901130812 69 162 0.0 1.7 0.07 0.04 0.04 96 1016.2
20260901125310 69 175 0.0 2.6 0.05 0.01 0.01 94 1016.2
20260901123806 69 175 0.0 1.7 0.00 0.00 0.00 92 1016.1
20260901122300 69 120 0.0 1.7 0.00 0.00 0.00 91 1016.1
20260901120800 70 90 0.0 0.9 0.00 0.00 0.00 91 1016.1
20260901115258 69 165 0.0 1.7 0.00 0.00 0.00 92 1016.1
20260901113754 69 106 0.0 0.9 0.00 0.00 0.00 94 1016.1
20260901112249 68 102 1.7 2.6 0.00 0.00 0.00 95 1016.2
20260901110748 68 142 0.0 1.7 0.00 0.00 0.00 95 1016.2
20260901105246 68 90 0.0 0.9 0.00 0.00 0.00 96 1016.0
20260901103743 68 157 1.7 1.7 0.00 0.00 0.00 96 1015.9
20260901102238 68 81 0.0 0.0 0.00 0.00 0.00 96 1015.7
20260901100739 67 117 0.9 1.7 0.00 0.00 0.00 96 1015.6
20260901095235 67 81 0.0 0.9 0.00 0.00 0.00 96 1015.5
20260901093732 67 90 0.0 0.9 0.00 0.00 0.00 95 1015.7
20260901092229 67 151 0.0 1.7 0.00 0.00 0.00 95 1015.6
20260901090726 67 114 0.0 1.7 0.00 0.00 0.00 95 1015.7
20260901085224 67 74 0.9 1.7 0.00 0.00 0.00 95 1015.7
20260901083722 67 120 0.0 0.9 0.00 0.00 0.00 95 1016.3
20260901082222 67 69 0.0 0.0 0.00 0.00 0.00 94 1016.6
20260901080718 67 90 0.0 0.0 0.00 0.00 0.00 93 1016.6
20260901075217 67 90 0.0 0.0 0.00 0.00 0.00 93 1016.5
20260901073715 67 114 0.0 0.0 0.00 0.00 0.00 92 1016.5
20260901072212 67 352 0.0 1.7 0.00 0.00 0.00 92 1016.3
20260901070712 67 106 0.0 0.0 0.00 0.00 0.00 92 1016.3
20260901065207 67 114 0.0 0.0 0.00 0.00 0.00 92 1016.6
20260901063703 67 74 0.0 0.9 0.00 0.00 0.00 92 1016.7
20260901062201 67 106 0.0 0.9 0.00 0.00 0.00 91 1016.9
20260901060658 67 180 0.0 0.0 0.00 0.00 0.00 91 1017.0
20260901055156 67 120 0.0 1.7 0.00 0.00 0.00 91 1016.8
20260901053657 67 90 0.0 0.0 0.00 0.00 0.00 91 1016.9
20260901052155 67 140 0.0 0.0 0.00 0.00 0.00 91 1017.1
20260901050654 68 109 0.9 1.7 0.00 0.00 0.00 91 1017.1
20260901045150 67 150 1.7 1.7 0.00 0.00 0.00 92 1017.2
20260901043649 67 66 0.0 1.7 0.00 0.00 0.00 91 1017.2
20260901042145 68 180 0.0 1.7 0.00 0.00 0.00 91 1017.3
20260901040642 68 145 0.0 1.7 0.00 0.00 0.00 91 1017.3
20260901035138 68 157 0.0 0.9 0.00 0.02 0.02 91 1017.5
20260901033637 67 172 0.0 0.0 0.00 0.02 0.02 91 1017.4
20260901032137 67 23 0.0 0.0 0.00 0.02 0.02 91 1017.5
20260901030634 67 172 0.0 0.9 0.00 0.02 0.02 91 1017.2
20260901025130 67 66 0.0 0.9 0.00 0.02 0.02 91 1017.4
20260901023628 67 90 0.0 1.7 0.00 0.02 0.02 90 1017.3
20260901022125 68 117 0.0 0.0 0.00 0.02 0.02 89 1017.5
20260901020624 68 107 0.0 1.7 0.00 0.02 0.02 88 1017.9
20260901015119 68 160 0.0 1.7 0.00 0.02 0.02 87 1018.0
20260901013617 68 97 0.0 1.7 0.00 0.02 0.02 87 1017.6
20260901012113 68 106 0.0 1.7 0.00 0.02 0.02 86 1017.6
20260901010609 68 75 0.9 1.7 0.00 0.02 0.02 86 1017.8
20260901005109 68 188 0.0 1.7 0.00 0.02 0.02 87 1017.8
20260901003605 68 159 0.0 2.6 0.00 0.02 0.02 87 1017.9
20260901002104 68 151 0.0 0.9 0.00 0.02 0.02 87 1018.1
20260901000601 68 102 0.0 2.6 0.00 0.02 0.02 87 1017.6
20260831235058 68 180 0.9 1.7 0.00 0.02 0.02 86 1018.0
20260831233554 69 77 0.0 1.7 0.00 0.02 0.02 86 1018.0
20260831232052 69 105 0.0 2.6 0.00 0.02 0.02 85 1017.8
20260831230551 69 95 1.7 4.3 0.00 0.02 0.02 83 1017.9
20260831225047 70 209 0.0 2.6 0.00 0.02 0.02 82 1017.8
20260831223544 70 180 0.0 1.7 0.00 0.02 0.02 80 1017.9
20260831222042 71 206 0.0 2.6 0.00 0.02 0.02 77 1017.9
20260831220539 71 263 0.9 5.2 0.00 0.02 0.02 78 1017.9